ATLAS 5 CENTAUR DEB, 46642

Orbit data source: Space-Track

ATLAS 5 CENTAUR DEB, 46642 is space debris in HEO originally from a launch on Wed, 17 Sep 2014 UTC launched from the Air Force Eastern Test Range (AFETR). Debris objects in space refer to the collection of defunct objects orbiting the Earth. Examples of debris include non-operational satellites, rocket bodies, and fragments generated from explosions, collisions, or faulty payload assembly.

Loading next visibility...
Identifier
46642, 2014-055CS
Orbit
HEO
Country
Flag of USUS
Related business
Flag of USUnited Launch Alliance/Lockheed Martin (US)
Manufacturer
Unknown
Mission
Spacecraft
Bus & Motor
Unknown
Mass
Unknown
Launch date (UTC)
2014-09-17 (12 years ago)
Launch vehicle
Unknown
Launch site
Air Force Eastern Test Range (AFETR)
Object type
Payload
Rocket body
Debris
Shape & HBR
Unknown shape, 1.1 m
Radar Cross Section
Medium (>0.1 m² and <1 m²)

Expand to show TLE details & history
Last TLE update: 3 days ago

TLE from 3 days ago
0 ATLAS 5 CENTAUR DEB
1 46642U 14055CS  26170.36466763 -.00000038  00000-0  00000-0 0  9996
2 46642  19.4595 162.4733 4545889 131.2832 277.9373  1.83232076 37949
Epoch: 2026-06-19T08:45Z
TLE epoch observation values (Epoch: 2026-06-19T08:45:07.283Z)
Latitude
0.00001°
Longitude
123.59264°
Altitude
25,562.314 km
Speed
3.291 km/s
True Right ascension
10h 49m 52s
True Declination
0° 00' 00"
Sunlit
Object was in daylight at epoch
Visualization orbit readout
Latitude
Unknown
Longitude
Unknown
Altitude
Unknown
Speed
Unknown
Apparent Right ascension
Unknown
Apparent Declination
Unknown
Sunlit
N/A
Visualization observer readout
Local Sidereal Time
21:36:40
Azimuth
Unknown
Elevation
Unknown
Doppler factor
Unknown
Orbital elements
Apogee altitude
34,658.308 km
Perigee altitude
9,008.844 km
Semi-major axis
28,211.713 km
Eccentricity
0.45459
Inclination
19.4595°
RAAN
162.4733°
Arg. of periapsis
131.2832°
True anomaly
228.7716°
Mean anomaly
277.9373°
Eccentric anomaly
253.02592°
Mean motion
0.45804 °/min
Orbital period
785.97 mins
BSTAR
0
Loading maneuver chart data...
Computing Atmospheric mass density...

Documentation

Showing up to 5 results
|